[[{"header":{"parameterUnit":"m.s-1","parameterCategory":1,"la1":30.2991,"la2":30.254,"lo1":-89.0895,"lo2":-89.0444,"dy":0.0017,"dx":0.0017,"nx":28,"ny":28,"refTime":"2024-06-29T09:00:00:Z","depth":0,"parameterNumber":2,"parameterNumberName":"U-component_of_WINDS"},"data":[0,0,0,0,0,0,0,0,0,0,0,0,0,0,0,0,0,0,0,0,0,0,0,0,0,0,0,0,0,0,0,0,0,0,0,0,0,0,0,0,0,0,0,0,0,0,0,0,0,0,0,0,0,0,0,0,0,0,-2.0855,-2.0855,0,-2.0823,-2.0823,-2.0822,-2.0736,-2.0734,-2.0732,-2.073,-2.0698,-2.0699,-2.07,0,0,0,0,0,0,0,0,0,0,0,0,0,-2.0844,-2.0845,-2.0855,-2.0855,-2.0854,-2.0823,-2.0823,-2.0822,-2.0736,-2.0734,-2.0732,-2.0729,-2.0698,-2.0699,-2.07,0,0,0,0,0,0,0,0,0,0,0,0,0,-2.0834,-2.0845,-2.0855,-2.0807,-2.0803,-2.0823,-2.0823,-2.0822,-2.0737,-2.0734,-2.0731,-2.0728,-2.0698,-2.0699,-2.07,-2.0765,0,0,-2.0704,-2.0705,0,0,0,0,0,0,0,0,-2.0835,-2.0835,-2.0815,-2.0811,-2.0806,-2.078,-2.0807,-2.0803,-2.0737,-2.0762,-2.073,-2.0727,-2.0728,-2.0727,-2.0727,-2.0763,-2.0762,-2.0705,-2.0705,-2.0706,-2.0706,0,0,0,0,0,0,0,-2.0836,-2.0836,-2.0842,-2.0815,-2.0809,-2.0789,-2.0784,-2.0806,-2.0761,-2.0759,-2.0753,-2.075,-2.0725,-2.0726,-2.0726,-2.0761,-2.0705,-2.0706,-2.0707,-2.0707,-2.0851,-2.0854,0,0,0,0,0,0,-2.0843,-2.0837,-2.0843,-2.0841,-2.0814,-2.0791,-2.0786,-2.0791,-2.0761,-2.0753,-2.0753,-2.0746,-2.0725,-2.0724,-2.0724,-2.0798,-2.0706,-2.0707,-2.0708,-2.0848,-2.0852,-2.0855,0,0,0,0,0,0,-2.0843,-2.0844,-2.0845,-2.0837,-2.0836,-2.0794,-2.0801,-2.0792,-2.0793,-2.0756,-2.0747,-2.0762,-2.0723,-2.0722,-2.0756,-2.0796,-2.0708,-2.0709,-2.0845,-2.0849,-2.0853,-2.0947,0,0,0,0,0,0,-2.0843,-2.0845,-2.0868,-2.0839,-2.0837,-2.0876,-2.0803,-2.0794,-2.0795,-2.0787,-2.0762,-2.0755,-2.072,-2.0754,-2.0757,-2.0796,-2.071,-2.0841,-2.0847,-2.0852,-2.094,-2.0954,-2.0966,0,0,0,0,0,-2.0843,-2.0895,-2.087,-2.0871,-2.0865,-2.0879,-2.0878,-2.0837,-2.0799,-2.0822,-2.0799,-2.0756,-2.0791,-2.0758,-2.0761,-2.0801,-2.0838,-2.0845,-2.0852,-2.0934,-2.0951,-2.0966,0,0,0,0,0,0,-2.093,-2.089,-2.0861,-2.0906,-2.0896,-2.0864,-2.0892,-2.0856,-2.0857,-2.0849,-2.0798,-2.0794,-2.0835,-2.0821,-2.0785,-2.0863,-2.0808,-2.0815,-2.087,-2.0886,-2.0899,-2.0901,-2.0711,0,0,0,0,0,-2.0955,-2.0969,-2.0934,-2.0976,-2.0973,-2.0934,-2.0938,-2.0908,-2.0896,-2.0892,-2.087,-2.0861,-2.087,-2.0877,-2.0884,-2.0938,-2.0932,-2.0967,-2.098,-2.0991,-2.0998,-2.1028,-2.1043,-2.0877,-2.0877,-2.0877,0,0,-2.1005,-2.0985,-2.0997,-2.0993,-2.0982,-2.0999,-2.0931,-2.0951,-2.0963,-2.0895,-2.0925,-2.091,-2.0896,-2.0941,-2.096,-2.0931,-2.1043,-2.1,-2.1009,-2.101,-2.1037,-2.1052,-2.1066,-2.0882,-2.0881,-2.088,0,0,-2.1105,-2.1092,-2.1126,-2.1117,-2.1102,-2.1076,-2.1085,-2.1058,-2.1046,-2.1075,-2.1025,-2.104,-2.1056,-2.1049,-2.1048,-2.1149,-2.111,-2.1153,-2.1221,-2.125,-2.1263,-2.1275,-2.1312,-2.1325,-2.116,-2.116,-2.1161,0,-2.117,-2.1192,-2.1148,-2.1172,-2.1173,-2.1113,-2.1148,-2.1142,-2.113,-2.1132,-2.11,-2.1121,-2.1108,-2.1151,-2.1176,-2.1177,-2.1186,-2.1155,-2.1265,-2.1276,-2.1286,-2.132,-2.1334,-2.1166,-2.1165,-2.1165,-2.1164,0,-2.1273,-2.129,-2.132,-2.131,-2.1314,-2.1344,-2.1306,-2.1315,-2.1286,-2.1264,-2.1296,-2.1279,-2.1281,-2.1289,-2.126,-2.1329,-2.1312,-2.1274,-2.1217,-2.1308,-2.1339,-2.1352,-2.1173,-2.1171,-2.117,-2.1168,0,0,-2.1425,-2.1393,-2.1404,-2.14,-2.138,-2.1393,-2.1421,-2.1424,-2.1433,-2.1428,-2.1451,-2.1468,-2.1433,-2.1432,-2.1402,-2.1428,-2.1511,-2.1386,-2.1385,-2.141,-2.1587,-2.1616,-2.1632,-2.1485,-2.1488,-2.1489,-2.1589,0,-2.152,-2.1565,-2.1528,-2.158,-2.1596,-2.1541,-2.1566,-2.1557,-2.1538,-2.155,-2.1529,-2.1542,-2.1494,-2.1493,-2.1517,-2.1496,-2.1546,-2.1488,-2.1507,-2.1508,-2.1511,-2.1649,-2.1679,-2.1773,-2.1601,-2.1603,-2.1604,0,-2.1636,-2.1637,-2.1691,-2.167,-2.1675,-2.1698,-2.1699,-2.171,-2.17,-2.1685,-2.1685,-2.1649,-2.1676,-2.1622,-2.166,-2.1622,-2.1628,-2.1619,-2.1622,-2.1621,-2.1561,-2.1652,-2.1802,-2.1817,-2.1623,-2.1622,-2.162,0,-2.1742,-2.1757,-2.1791,-2.179,-2.1765,-2.1783,-2.1774,-2.1761,-2.1766,-2.1767,-2.177,-2.1775,-2.1777,-2.1783,-2.1749,-2.1713,-2.1792,-2.1735,-2.1781,-2.1782,-2.1799,-2.1798,-2.1952,-2.1804,-2.1803,-2.1803,-2.1803,0,-2.1852,-2.1888,-2.1839,-2.186,-2.19,-2.1857,-2.1898,-2.1883,-2.1873,-2.1891,-2.1844,-2.1863,-2.1817,-2.1832,-2.1806,-2.1842,-2.1844,-2.1833,-2.1825,-2.1837,-2.1838,-2.1839,-2.1832,-2.1807,-2.1806,-2.1805,-2.1805,0,-2.1976,-2.1945,-2.198,-2.1955,-2.195,-2.198,-2.1959,-2.1978,-2.1957,-2.1982,-2.1985,-2.1952,-2.1967,-2.1935,-2.1945,-2.1928,-2.1979,-2.1962,-2.1983,-2.1977,-2.2025,-2.2022,-2.2185,-2.2205,-2.2044,-2.2046,-2.2047,0,-2.2048,-2.2074,-2.2053,-2.2062,-2.2056,-2.2071,-2.2076,-2.2037,-2.2044,-2.2036,-2.2057,-2.2069,-2.2075,-2.2102,-2.2079,-2.2088,-2.207,-2.2127,-2.207,-2.2082,-2.2071,-2.207,-2.2073,-2.2138,-2.214,-2.2141,-2.2143,0,-2.2179,-2.2163,-2.2172,-2.2177,-2.2184,-2.2186,-2.2184,-2.2195,-2.2153,-2.2164,-2.2179,-2.2185,-2.2196,-2.2208,-2.2211,-2.2203,-2.2167,-2.2161,-2.2172,-2.2184,-2.2195,-2.219,-2.2014,-2.2157,-2.2156,-2.2154,-2.2154,-2.2153,-2.2279,-2.2301,-2.229,-2.2302,-2.2297,-2.2297,-2.2315,-2.2297,-2.2308,-2.2314,-2.2291,-2.2312,-2.2304,-2.2305,-2.2301,-2.2317,-2.2291,-2.2307,-2.2311,-2.2316,-2.2324,-2.2193,-2.2317,-2.2317,-2.2316,-2.2316,-2.2316,0,-2.2408,-2.2399,-2.2411,-2.2411,-2.2421,-2.2386,-2.2384,-2.2395,-2.2414,-2.2409,-2.2417,-2.2435,-2.2448,-2.2427,-2.2437,-2.2454,-2.2438,-2.2458,-2.2456,-2.2455,-2.2346,-2.2336,-2.2471,-2.2471,-2.2471,-2.2471,-2.2471,-2.2471,-2.2476,-2.2511,-2.2495,-2.2528,-2.2518,-2.2538,-2.254,-2.254,-2.2537,-2.2559,-2.2569,-2.2556,-2.2546,-2.2554,-2.2565,-2.2559,-2.2564,-2.2591,-2.2579,-2.2477,-2.2462,-2.2448,-2.2438,-2.2592,-2.2592,-2.2686,-2.2687,-2.2688]},{"header":{"parameterUnit":"m.s-1","parameterCategory":1,"la1":30.2991,"la2":30.254,"lo1":-89.0895,"lo2":-89.0444,"dy":0.0017,"dx":0.0017,"nx":28,"ny":28,"refTime":"2024-06-29T09:00:00:Z","depth":0,"parameterNumber":3,"parameterNumberName":"V-component_of_WINDS"},"data":[0,0,0,0,0,0,0,0,0,0,0,0,0,0,0,0,0,0,0,0,0,0,0,0,0,0,0,0,0,0,0,0,0,0,0,0,0,0,0,0,0,0,0,0,0,0,0,0,0,0,0,0,0,0,0,0,0,0,3.8011,3.8011,0,3.8023,3.8023,3.8024,3.8061,3.8062,3.8062,3.8063,3.8072,3.8071,3.8071,0,0,0,0,0,0,0,0,0,0,0,0,0,3.8018,3.8017,3.8011,3.8011,3.8011,3.8023,3.8023,3.8024,3.8061,3.8062,3.8063,3.8064,3.8072,3.8071,3.8071,0,0,0,0,0,0,0,0,0,0,0,0,0,3.8021,3.8017,3.8011,3.8031,3.8033,3.8023,3.8023,3.8024,3.806,3.8062,3.8063,3.8064,3.8072,3.8072,3.8071,3.8041,0,0,3.8068,3.8068,0,0,0,0,0,0,0,0,3.8021,3.802,3.8028,3.803,3.8032,3.8042,3.8029,3.8029,3.806,3.805,3.8063,3.8065,3.8061,3.8061,3.806,3.8041,3.8042,3.8068,3.8068,3.8067,3.8067,0,0,0,0,0,0,0,3.802,3.802,3.8016,3.8028,3.8031,3.8039,3.8041,3.8029,3.8048,3.8051,3.8054,3.8055,3.8062,3.8061,3.8061,3.8042,3.8068,3.8067,3.8067,3.8067,3.8,3.7998,0,0,0,0,0,0,3.8018,3.802,3.8015,3.8016,3.8029,3.8038,3.804,3.8037,3.8048,3.8051,3.8054,3.8056,3.8062,3.8062,3.8061,3.8027,3.8067,3.8067,3.8066,3.8001,3.7999,3.7998,0,0,0,0,0,0,3.8018,3.8017,3.8015,3.8019,3.8019,3.8037,3.8033,3.8037,3.8036,3.805,3.8054,3.8049,3.8063,3.8062,3.8046,3.8028,3.8066,3.8065,3.8002,3.8,3.7999,3.7959,0,0,0,0,0,0,3.8018,3.8017,3.8006,3.8018,3.8019,3.8,3.8032,3.8036,3.8035,3.8039,3.8047,3.805,3.8064,3.8047,3.8045,3.8028,3.8065,3.8004,3.8002,3.7999,3.7962,3.7956,3.795,0,0,0,0,0,3.8018,3.7993,3.8005,3.8004,3.8006,3.7999,3.7999,3.8017,3.8033,3.8022,3.8032,3.805,3.8031,3.8045,3.8043,3.8025,3.8005,3.8002,3.7999,3.7964,3.7957,3.795,0,0,0,0,0,0,3.7976,3.7995,3.8008,3.7987,3.7991,3.8005,3.7992,3.8008,3.8006,3.801,3.8031,3.8032,3.8013,3.8018,3.8033,3.7997,3.8021,3.8018,3.7995,3.7988,3.7982,3.7981,3.8064,0,0,0,0,0,3.7965,3.7959,3.7975,3.7955,3.7956,3.7974,3.7971,3.7985,3.7989,3.7991,3.7999,3.8002,3.7997,3.7993,3.7989,3.7963,3.7965,3.795,3.7944,3.794,3.7936,3.7923,3.7916,3.7988,3.7988,3.7988,0,0,3.7941,3.795,3.7945,3.7947,3.7951,3.7944,3.7975,3.7965,3.7959,3.7989,3.7974,3.7981,3.7985,3.7964,3.7956,3.7968,3.7917,3.7936,3.7932,3.7931,3.7919,3.7913,3.7906,3.7986,3.7987,3.7987,0,0,3.7893,3.79,3.7884,3.7888,3.7896,3.7908,3.7904,3.7916,3.7922,3.7908,3.793,3.7924,3.7914,3.7917,3.7917,3.7873,3.7889,3.7871,3.7841,3.7828,3.7822,3.7817,3.7801,3.7795,3.7867,3.7867,3.7867,0,3.7861,3.7852,3.7873,3.7863,3.7863,3.7891,3.7875,3.7878,3.7883,3.7883,3.7897,3.7887,3.7892,3.7872,3.7861,3.7861,3.7857,3.7869,3.7822,3.7817,3.7813,3.7797,3.7791,3.7865,3.7865,3.7865,3.7866,0,3.7813,3.7806,3.7792,3.7798,3.7797,3.7783,3.7802,3.7799,3.7813,3.7823,3.7809,3.7816,3.7815,3.7812,3.7824,3.7794,3.7801,3.7818,3.7842,3.7803,3.7789,3.7783,3.7862,3.7862,3.7863,3.7864,0,0,3.7737,3.7757,3.7751,3.7755,3.7766,3.7761,3.7749,3.7749,3.7745,3.7748,3.7739,3.7731,3.7747,3.7748,3.7761,3.775,3.7714,3.7769,3.7769,3.7758,3.7681,3.7668,3.7661,3.7726,3.7725,3.7724,3.7681,0,3.7691,3.7673,3.7693,3.767,3.7664,3.7692,3.7681,3.7687,3.7697,3.7693,3.7703,3.7698,3.772,3.772,3.7711,3.7721,3.7699,3.7724,3.7716,3.7716,3.7713,3.7654,3.7639,3.7597,3.7675,3.7675,3.7674,0,3.7635,3.7637,3.7614,3.7628,3.7626,3.7617,3.7619,3.7615,3.7622,3.763,3.7631,3.7649,3.7638,3.7663,3.7647,3.7664,3.7662,3.7667,3.7666,3.7665,3.7691,3.765,3.7585,3.7578,3.7666,3.7666,3.7667,0,3.7581,3.7579,3.7565,3.7567,3.7583,3.7576,3.7582,3.7591,3.759,3.7592,3.7591,3.7591,3.7591,3.759,3.7607,3.7624,3.759,3.7616,3.7596,3.7595,3.7586,3.7586,3.7519,3.7586,3.7586,3.7587,3.7587,0,3.7527,3.7512,3.7541,3.7532,3.7516,3.754,3.7523,3.7532,3.754,3.7533,3.7557,3.755,3.7573,3.7568,3.7582,3.7567,3.7567,3.7573,3.7576,3.757,3.7569,3.7568,3.7571,3.7585,3.7585,3.7586,3.7586,0,3.7464,3.7483,3.747,3.7487,3.7491,3.7479,3.7493,3.7486,3.7498,3.7489,3.7489,3.7508,3.7504,3.7521,3.7519,3.7528,3.7507,3.7515,3.7505,3.7507,3.7486,3.7487,3.7414,3.7406,3.7479,3.7478,3.7478,0,3.7428,3.7417,3.7434,3.7432,3.7438,3.7434,3.7434,3.7456,3.7455,3.7464,3.7455,3.7453,3.7453,3.7445,3.7458,3.7457,3.7466,3.7441,3.7466,3.746,3.7465,3.7465,3.7464,3.7435,3.7434,3.7433,3.7432,0,3.7362,3.7373,3.7372,3.7375,3.7375,3.7378,3.7382,3.7379,3.7404,3.7401,3.7398,3.7398,3.7398,3.7396,3.7398,3.7404,3.7422,3.7425,3.742,3.7413,3.7407,3.741,3.7489,3.7426,3.7426,3.7427,3.7427,3.7428,3.7311,3.7303,3.7314,3.7313,3.7319,3.7324,3.7318,3.7331,3.7329,3.7331,3.7345,3.7339,3.7348,3.7353,3.7357,3.7353,3.7365,3.7358,3.7356,3.7354,3.735,3.7409,3.7353,3.7354,3.7354,3.7354,3.7354,0,3.7246,3.7255,3.7254,3.7261,3.726,3.7279,3.7286,3.7283,3.7279,3.7286,3.7286,3.7283,3.7281,3.7295,3.7295,3.7289,3.7298,3.7289,3.7289,3.729,3.7339,3.7343,3.7282,3.7282,3.7282,3.7282,3.7282,3.7282,3.7212,3.72,3.7212,3.7203,3.7212,3.7208,3.721,3.7214,3.722,3.7216,3.7216,3.7225,3.7235,3.7237,3.7236,3.724,3.7239,3.7227,3.7234,3.7279,3.7286,3.7293,3.7297,3.7227,3.7226,3.7185,3.7184,3.7184]}]]